Location: El Portezuelo
(28.4984°N, 16.3589°W)
Time: 21:03:58
(UTC+00:00)

Cosmos 1825 Rocket - Pass Details

Date: 20 January 2020
Orbit: 604 x 630 km, 82.5° (Epoch: 25 February)

Event Time Altitude Azimuth Distance (km) Brightness Sun altitude
Rises 06:37:11 0° 1° (N) 2,860 6.8 -17.7°
Reaches altitude 10° 06:39:27 10° 7° (N) 1,956 6.0 -17.3°
Maximum altitude 06:43:39 50° 82° (E) 780 4.5 -16.4°
Drops below altitude 10° 06:47:51 10° 158° (SSE) 1,956 6.6 -15.5°
Sets 06:50:07 0° 164° (SSE) 2,861 7.4 -15.0°
